Satellite: RS-30
Catalog number: 32953
Epoch time:      11146.57652159
Element set:     764
Inclination:      082.5011 deg
RA of node:       176.1579 deg
Eccentricity:    0.0020464
Arg of perigee:   075.5326 deg
Mean anomaly:     284.8023 deg
Mean motion:   12.43013065 rev/day
Decay rate:        1.0e-07 rev/day^2
Epoch rev:           13640
Checksum:              270

Satellite: CAPE1
Catalog number: 31130
Epoch time:      11146.59596276
Element set:     184
Inclination:      097.9004 deg
RA of node:       171.8403 deg
Eccentricity:    0.0101255
Arg of perigee:   248.2177 deg
Mean anomaly:     110.8224 deg
Mean motion:   14.52388099 rev/day
Decay rate:       1.98e-06 rev/day^2
Epoch rev:           21750
Checksum:              291

Satellite: COMPASS
Catalog number: 32787
Epoch time:      11146.74632124
Element set:     996
Inclination:      097.8476 deg
RA of node:       210.9595 deg
Eccentricity:    0.0014527
Arg of perigee:   244.5609 deg
Mean anomaly:     115.4098 deg
Mean motion:   14.82402770 rev/day
Decay rate:       8.41e-06 rev/day^2
Epoch rev:           16638
Checksum:              323

Satellite: METEOR-M
Catalog number: 35865
Epoch time:      11146.75846885
Element set:     401
Inclination:      098.7075 deg
RA of node:       202.1624 deg
Eccentricity:    0.0003255
Arg of perigee:   086.1381 deg
Mean anomaly:     274.0114 deg
Mean motion:   14.21838770 rev/day
Decay rate:       1.76e-06 rev/day^2
Epoch rev:            8754
Checksum:              299

Satellite: RS-38
Catalog number: 35869
Epoch time:      11146.76116777
Element set:     394
Inclination:      098.7039 deg
RA of node:       202.2014 deg
Eccentricity:    0.0005394
Arg of perigee:   089.8034 deg
Mean anomaly:     270.3712 deg
Mean motion:   14.22011889 rev/day
Decay rate:       1.77e-06 rev/day^2
Epoch rev:            8755
Checksum:              321

Satellite: PHARMSAT
Catalog number: 35002
Epoch time:      11146.80591608
Element set:     558
Inclination:      040.4698 deg
RA of node:       300.2066 deg
Eccentricity:    0.0024360
Arg of perigee:   052.9179 deg
Mean anomaly:     307.3863 deg
Mean motion:   15.48118575 rev/day
Decay rate:      9.645e-05 rev/day^2
Epoch rev:           11379
Checksum:              302

Satellite: ISS
Catalog number: 25544
Epoch time:      11146.82998442
Element set:     423
Inclination:      051.6479 deg
RA of node:       270.2731 deg
Eccentricity:    0.0003248
Arg of perigee:   327.3115 deg
Mean anomaly:     170.5090 deg
Mean motion:   15.75536230 rev/day
Decay rate:     1.6276e-04 rev/day^2
Epoch rev:           71754
Checksum:              293

Satellite: MAST
Catalog number: 31126
Epoch time:      11146.83633957
Element set:     168
Inclination:      097.8940 deg
RA of node:       175.2673 deg
Eccentricity:    0.0093225
Arg of perigee:   236.7242 deg
Mean anomaly:     122.5003 deg
Mean motion:   14.53745227 rev/day
Decay rate:        4.7e-07 rev/day^2
Epoch rev:           21798
Checksum:              301

/EX


_______________________________________________
Via the Keps mailing list courtesy of AMSAT-NA
http://amsat.org/mailman/listinfo/keps

--- ViaMAIL!/WC v1.60d
 * Origin: Chowdanet (401-724-4410) telnet://chowdanet.com  (1:323/120)